�������l�o���
Date,Time,MP-1(��Sv/h),MP-2(��Sv/h),MP-3(��Sv/h),MP-4(��Sv/h),MP-5(��Sv/h),MP-6(��Sv/h),MP-7(��Sv/h),����,����(m/s),���J
2017/03/13,00:00,0.398,0.247,0.410,0.377,0.337,0.199,0.169,��쐼,4.4,��
2017/03/13,00:10,0.397,0.247,0.409,0.377,0.337,0.199,0.171,��쐼,4.9,��
2017/03/13,00:20,0.397,0.247,0.410,0.378,0.337,0.198,0.169,��쐼,4.9,��
2017/03/13,00:30,0.398,0.246,0.409,0.378,0.337,0.199,0.169,��쐼,4.9,��
2017/03/13,00:40,0.397,0.247,0.409,0.377,0.338,0.198,0.170,��쐼,5.2,��
2017/03/13,00:50,0.398,0.246,0.407,0.378,0.336,0.199,0.169,��쐼,4.7,��
2017/03/13,01:00,0.398,0.247,0.410,0.377,0.338,0.198,0.169,��쐼,4.5,��
2017/03/13,01:10,0.399,0.246,0.410,0.377,0.337,0.199,0.169,��쐼,4.8,��
2017/03/13,01:20,0.397,0.247,0.409,0.377,0.337,0.198,0.169,��쐼,4.4,��
2017/03/13,01:30,0.397,0.247,0.409,0.376,0.337,0.199,0.169,��쐼,4.1,��
2017/03/13,01:40,0.397,0.246,0.408,0.377,0.336,0.198,0.168,��,3.3,��
2017/03/13,01:50,0.399,0.247,0.411,0.377,0.336,0.199,0.167,��쐼,3.6,��
2017/03/13,02:00,0.398,0.245,0.409,0.378,0.336,0.199,0.169,��쐼,4.3,��
2017/03/13,02:10,0.397,0.246,0.409,0.376,0.337,0.199,0.169,��,3.4,��
2017/03/13,02:20,0.397,0.246,0.409,0.377,0.338,0.199,0.169,��,3.7,��
2017/03/13,02:30,0.397,0.245,0.407,0.379,0.337,0.199,0.168,��,3.6,��
2017/03/13,02:40,0.398,0.246,0.410,0.378,0.335,0.198,0.169,��,3.4,��
2017/03/13,02:50,0.397,0.248,0.409,0.378,0.336,0.198,0.169,��,3.6,��
2017/03/13,03:00,0.397,0.246,0.409,0.377,0.340,0.199,0.168,��,3.0,��
2017/03/13,03:10,0.397,0.247,0.409,0.378,0.338,0.198,0.169,��,3.6,��
2017/03/13,03:20,0.400,0.246,0.409,0.376,0.336,0.199,0.168,��,3.3,��
2017/03/13,03:30,0.397,0.246,0.408,0.377,0.336,0.198,0.169,��,3.4,��
2017/03/13,03:40,0.399,0.246,0.409,0.378,0.340,0.199,0.170,��,3.2,��
2017/03/13,03:50,0.396,0.246,0.410,0.378,0.338,0.198,0.169,��,2.6,��
2017/03/13,04:00,0.396,0.246,0.409,0.376,0.338,0.198,0.168,��쓌,2.4,��
2017/03/13,04:10,0.398,0.247,0.409,0.377,0.338,0.198,0.169,��쓌,2.7,��
2017/03/13,04:20,0.397,0.246,0.409,0.377,0.339,0.200,0.168,��쓌,2.9,��
2017/03/13,04:30,0.398,0.245,0.410,0.378,0.337,0.198,0.168,��,3.3,��
2017/03/13,04:40,0.398,0.245,0.408,0.378,0.338,0.198,0.168,��,3.3,��
2017/03/13,04:50,0.397,0.247,0.409,0.377,0.339,0.199,0.168,��,3.6,��
2017/03/13,05:00,0.397,0.246,0.409,0.378,0.338,0.198,0.168,��,3.2,��
2017/03/13,05:10,0.398,0.247,0.408,0.379,0.336,0.198,0.169,��,2.8,��
2017/03/13,05:20,0.396,0.246,0.410,0.377,0.338,0.197,0.169,��,3.9,��
2017/03/13,05:30,0.397,0.247,0.410,0.377,0.339,0.199,0.169,��쓌,3.6,��
2017/03/13,05:40,0.396,0.247,0.409,0.378,0.338,0.198,0.169,��쓌,3.4,��
2017/03/13,05:50,0.397,0.246,0.407,0.377,0.336,0.197,0.169,��쓌,3.1,��
2017/03/13,06:00,0.398,0.246,0.408,0.375,0.338,0.198,0.169,��,3.7,��
2017/03/13,06:10,0.396,0.246,0.411,0.379,0.338,0.199,0.169,��,3.5,��
2017/03/13,06:20,0.396,0.247,0.409,0.377,0.338,0.198,0.169,��,3.3,��
2017/03/13,06:30,0.399,0.247,0.409,0.378,0.337,0.197,0.168,��,3.1,��
2017/03/13,06:40,0.397,0.246,0.409,0.377,0.338,0.199,0.170,��,3.2,��
2017/03/13,06:50,0.397,0.246,0.407,0.377,0.337,0.198,0.169,��쓌,3.3,��
2017/03/13,07:00,0.397,0.247,0.408,0.376,0.337,0.198,0.168,��,2.8,��
2017/03/13,07:10,0.399,0.247,0.408,0.376,0.340,0.197,0.168,��,2.8,��
2017/03/13,07:20,0.396,0.246,0.408,0.379,0.339,0.199,0.170,��,3.1,��
2017/03/13,07:30,0.397,0.247,0.409,0.375,0.337,0.198,0.169,��,3.6,��
2017/03/13,07:40,0.399,0.247,0.408,0.376,0.338,0.198,0.168,��,3.2,��
2017/03/13,07:50,0.398,0.246,0.407,0.378,0.339,0.199,0.169,��,3.1,��
2017/03/13,08:00,0.398,0.246,0.408,0.378,0.336,0.198,0.169,��,3.1,��
2017/03/13,08:10,0.398,0.246,0.410,0.378,0.336,0.199,0.168,��,2.7,��
2017/03/13,08:20,0.398,0.246,0.408,0.377,0.339,0.197,0.168,��,2.8,��
2017/03/13,08:30,0.398,0.246,0.408,0.380,0.338,0.198,0.168,��,0.8,��
2017/03/13,08:40,0.397,0.245,0.410,0.377,0.336,0.197,0.168,��,3.9,��
2017/03/13,08:50,0.397,0.246,0.408,0.377,0.337,0.197,0.168,��,5.9,��
2017/03/13,09:00,0.397,0.246,0.408,0.379,0.337,0.196,0.169,��쓌,3.3,��
2017/03/13,09:10,0.396,0.246,0.410,0.376,0.336,0.198,0.168,��,3.3,��
2017/03/13,09:20,0.398,0.245,0.408,0.377,0.339,0.198,0.168,��쓌,4.5,��
2017/03/13,09:30,0.395,0.246,0.407,0.378,0.336,0.197,0.169,��쓌,2.2,��
2017/03/13,09:40,0.397,0.245,0.409,0.376,0.336,0.197,0.169,��쓌,3.3,��
2017/03/13,09:50,0.397,0.245,0.408,0.377,0.337,0.198,0.169,��쓌,3.2,��
2017/03/13,10:00,0.397,0.246,0.407,0.378,0.337,0.198,0.168,��쓌,3.3,��
2017/03/13,10:10,0.397,0.246,0.409,0.377,0.335,0.198,0.169,��쓌,3.4,��
2017/03/13,10:20,0.397,0.245,0.408,0.377,0.338,0.197,0.169,�쓌,2.5,��
2017/03/13,10:30,0.397,0.245,0.407,0.379,0.336,0.197,0.168,�쓌,2.0,��
2017/03/13,10:40,0.398,0.244,0.410,0.378,0.336,0.198,0.169,��쓌,3.2,��
2017/03/13,10:50,0.395,0.246,0.407,0.376,0.339,0.197,0.168,��쓌,4.2,��
2017/03/13,11:00,0.397,0.245,0.408,0.377,0.337,0.197,0.169,��쓌,5.3,��
2017/03/13,11:10,0.395,0.246,0.409,0.377,0.337,0.198,0.170,�쓌,3.3,��
2017/03/13,11:20,0.395,0.246,0.406,0.376,0.338,0.198,0.168,�쓌,3.4,��
2017/03/13,11:30,0.398,0.245,0.407,0.377,0.334,0.198,0.168,�쓌,4.9,��
2017/03/13,11:40,0.396,0.246,0.408,0.375,0.337,0.198,0.169,��쓌,3.5,��
2017/03/13,11:50,0.398,0.246,0.407,0.377,0.337,0.197,0.168,��쓌,2.9,��
2017/03/13,12:00,0.395,0.246,0.409,0.377,0.337,0.198,0.168,��쓌,3.3,��
2017/03/13,12:10,0.397,0.246,0.408,0.377,0.338,0.198,0.169,��쓌,2.8,��
2017/03/13,12:20,0.396,0.247,0.407,0.378,0.337,0.197,0.169,�쓌,2.3,��
2017/03/13,12:30,0.394,0.246,0.409,0.378,0.338,0.198,0.170,��쓌,1.9,��
2017/03/13,12:40,0.397,0.245,0.409,0.375,0.336,0.196,0.169,��쓌,2.4,��
2017/03/13,12:50,0.395,0.246,0.407,0.378,0.337,0.197,0.169,��,4.5,��
2017/03/13,13:00,0.398,0.246,0.409,0.377,0.337,0.198,0.169,��쓌,3.9,��
2017/03/13,13:10,0.398,0.246,0.408,0.377,0.336,0.197,0.169,��,3.4,��
2017/03/13,13:20,0.395,0.247,0.409,0.379,0.338,0.198,0.169,��,3.2,��
2017/03/13,13:30,0.397,0.245,0.409,0.378,0.338,0.198,0.169,��,3.8,��
2017/03/13,13:40,0.396,0.246,0.408,0.378,0.336,0.198,0.169,��,3.8,��
2017/03/13,13:50,0.396,0.246,0.409,0.380,0.338,0.198,0.169,��쓌,4.2,��
2017/03/13,14:00,0.398,0.246,0.409,0.379,0.336,0.199,0.169,��쓌,3.2,��
2017/03/13,14:10,0.396,0.246,0.406,0.377,0.336,0.198,0.168,��쓌,2.2,��
2017/03/13,14:20,0.397,0.247,0.406,0.379,0.338,0.197,0.169,��쓌,3.4,��
2017/03/13,14:30,0.395,0.246,0.408,0.377,0.337,0.197,0.169,��쓌,3.5,��
2017/03/13,14:40,0.398,0.245,0.408,0.376,0.337,0.198,0.169,��쓌,4.4,��
2017/03/13,14:50,0.397,0.247,0.410,0.379,0.339,0.197,0.168,��쓌,3.6,��
2017/03/13,15:00,0.398,0.247,0.409,0.379,0.337,0.197,0.169,��,2.0,��
2017/03/13,15:10,0.398,0.245,0.408,0.377,0.337,0.199,0.169,��쓌,3.0,��
2017/03/13,15:20,0.397,0.246,0.406,0.380,0.338,0.198,0.168,�쓌,2.6,��
2017/03/13,15:30,0.396,0.246,0.407,0.377,0.336,0.199,0.168,��쓌,2.3,��
2017/03/13,15:40,0.398,0.247,0.407,0.377,0.339,0.198,0.169,��,2.4,��
2017/03/13,15:50,0.396,0.247,0.409,0.379,0.338,0.197,0.169,��쓌,1.4,��
2017/03/13,16:00,0.397,0.246,0.410,0.378,0.335,0.198,0.168,��쓌,1.6,��
2017/03/13,16:10,0.400,0.246,0.408,0.377,0.338,0.198,0.169,��쓌,1.4,��
2017/03/13,16:20,0.396,0.246,0.407,0.379,0.339,0.198,0.169,��쓌,1.2,�L
2017/03/13,16:30,0.398,0.246,0.411,0.378,0.337,0.198,0.169,��쓌,1.4,��
2017/03/13,16:40,0.398,0.247,0.406,0.377,0.336,0.198,0.170,��,1.4,��
2017/03/13,16:50,0.396,0.248,0.410,0.378,0.338,0.198,0.169,��,2.4,��
2017/03/13,17:00,0.398,0.246,0.410,0.379,0.335,0.198,0.169,��쐼,0.6,��
2017/03/13,17:10,0.397,0.246,0.409,0.378,0.337,0.197,0.168,��,0.7,��
2017/03/13,17:20,0.398,0.247,0.408,0.377,0.338,0.198,0.168,-,CALM,��
2017/03/13,17:30,0.399,0.246,0.410,0.380,0.336,0.198,0.169,��,1.5,��
2017/03/13,17:40,0.397,0.246,0.409,0.377,0.336,0.198,0.169,��,1.4,��
2017/03/13,17:50,0.396,0.246,0.407,0.378,0.339,0.198,0.169,��,1.3,��
2017/03/13,18:00,0.397,0.247,0.410,0.379,0.336,0.198,0.168,�쓌,1.9,��
2017/03/13,18:10,0.396,0.247,0.408,0.377,0.337,0.197,0.168,��쓌,2.2,��
2017/03/13,18:20,0.396,0.246,0.407,0.378,0.338,0.198,0.169,��쓌,2.5,��
2017/03/13,18:30,0.399,0.247,0.409,0.379,0.337,0.198,0.169,��쓌,1.6,��
2017/03/13,18:40,0.397,0.246,0.409,0.377,0.336,0.198,0.169,��쓌,2.2,��
2017/03/13,18:50,0.397,0.246,0.408,0.376,0.338,0.198,0.169,��쓌,2.1,��
2017/03/13,19:00,0.397,0.247,0.409,0.377,0.338,0.198,0.169,�쐼,2.0,��
2017/03/13,19:10,0.398,0.247,0.408,0.379,0.337,0.197,0.168,�쐼,1.0,��
2017/03/13,19:20,0.397,0.248,0.409,0.377,0.337,0.199,0.169,��쓌,0.6,��
2017/03/13,19:30,0.397,0.245,0.407,0.379,0.338,0.199,0.169,-,CALM,��
2017/03/13,19:40,0.399,0.248,0.408,0.380,0.336,0.198,0.168,��쐼,1.0,��
2017/03/13,19:50,0.394,0.246,0.409,0.377,0.338,0.198,0.170,��,0.7,��
2017/03/13,20:00,0.398,0.245,0.408,0.378,0.338,0.197,0.169,-,CALM,��
2017/03/13,20:10,0.398,0.247,0.409,0.378,0.337,0.199,0.168,��,0.6,��
2017/03/13,20:20,0.397,0.247,0.411,0.378,0.338,0.198,0.169,-,CALM,��
2017/03/13,20:30,0.396,0.246,0.408,0.377,0.338,0.198,0.168,-,CALM,��
2017/03/13,20:40,0.397,0.245,0.408,0.378,0.336,0.197,0.170,-,CALM,��
2017/03/13,20:50,0.399,0.247,0.409,0.377,0.337,0.199,0.168,-,CALM,��
2017/03/13,21:00,0.396,0.247,0.410,0.379,0.338,0.198,0.169,-,CALM,��
2017/03/13,21:10,0.399,0.247,0.408,0.378,0.337,0.199,0.168,-,CALM,��
2017/03/13,21:20,0.397,0.246,0.406,0.378,0.337,0.198,0.168,�k��,0.6,��
2017/03/13,21:30,0.396,0.246,0.410,0.377,0.338,0.198,0.168,-,CALM,��
2017/03/13,21:40,0.396,0.246,0.410,0.379,0.337,0.197,0.169,-,CALM,��
2017/03/13,21:50,0.398,0.246,0.409,0.377,0.336,0.198,0.168,-,CALM,��
2017/03/13,22:00,0.396,0.247,0.411,0.378,0.337,0.198,0.168,-,CALM,��
2017/03/13,22:10,0.398,0.248,0.410,0.379,0.337,0.199,0.168,-,CALM,��
2017/03/13,22:20,0.399,0.247,0.409,0.379,0.337,0.197,0.169,-,CALM,��
2017/03/13,22:30,0.397,0.246,0.408,0.377,0.337,0.199,0.168,�k,0.6,��
2017/03/13,22:40,0.399,0.247,0.410,0.377,0.336,0.197,0.169,�k��,0.6,��
2017/03/13,22:50,0.397,0.247,0.408,0.380,0.337,0.197,0.168,-,CALM,��
2017/03/13,23:00,0.397,0.247,0.408,0.378,0.338,0.199,0.169,���k��,0.6,��
2017/03/13,23:10,0.397,0.247,0.410,0.377,0.338,0.198,0.169,�k��,1.0,��
2017/03/13,23:20,0.399,0.246,0.409,0.379,0.338,0.199,0.169,�k�k��,1.1,��
2017/03/13,23:30,0.398,0.248,0.408,0.378,0.338,0.198,0.169,�k�k��,0.6,��
2017/03/13,23:40,0.397,0.247,0.410,0.377,0.338,0.198,0.168,�k��,0.8,��
2017/03/13,23:50,0.398,0.247,0.410,0.378,0.337,0.198,0.168,�k�k��,1.6,��
